Regional Weather Roundup
Issued by NWS

Home | Current Version | Previous Version | Graphics & Text | Print | Product List | Glossary On
Versions: 1 2 3 4 5 6 7 8 9 10 11 12 13 14 15 16 17 18 19 20 21 22 23 24 25 26 27 28 29 30 31 32 33 34 35 36 37 38 39 40 41 42 43 44 45 46 47 48 49 50
000
ASUS43 KLOT 290221
RWRIL

ILLINOIS REGIONAL WEATHER ROUNDUP
NATIONAL WEATHER SERVICE CHICAGO/ROMEOVILLE IL
900 PM CDT THU MAY 28 2015

NOTE: "FAIR" INDICATES FEW OR NO CLOUDS BELOW 12,000 FEET WITH NO
SIGNIFICANT WEATHER AND/OR OBSTRUCTIONS TO VISIBILITY.

* THESE STATIONS ARE NOT UNDER NWS QUALITY CONTROL. THEY ALSO MAY NOT
  REPORT WEATHER SUCH AS PRECIPITATION OR FOG.

ILZ001-002-007-009-015-016-024-290300-
NORTHWEST ILLINOIS

CITY           SKY/WX    TMP DP  RH WIND       PRES   REMARKS
MOLINE         CLOUDY    70  58  65 CALM      30.02S
STERLING*      CLOUDY    73  52  46 SE5       30.04S
SAVANNA*       CLOUDY    72  53  50 SE5       30.02F
$$

ILZ003-004-008-010-011-017-018-290300-
NORTH CENTRAL ILLINOIS

CITY           SKY/WX    TMP DP  RH WIND       PRES   REMARKS
ROCKFORD       MOCLDY    74  50  42 SE9       30.06F
FREEPORT*      MOCLDY    67  52  57 SE5       30.06F
ROCHELLE*      MOCLDY    72  54  53 SE9       30.06F
DE KALB*       MOCLDY    70  53  54 SE8       30.07F
PERU*          MOCLDY    76  46  33 SE6       30.05F
$$

ILZ005-006-012>014-019>023-290300-
NORTHEAST ILLINOIS

CITY           SKY/WX    TMP DP  RH WIND       PRES   REMARKS
CHICAGO-OHARE  MOCLDY    71  53  52 E8        30.08F
CHICAGO-MIDWAY MOCLDY    72  55  55 E8        30.08F
AURORA         MOCLDY    71  54  54 E9        30.07F
LANSING*       PTCLDY    70  54  57 NE3       30.09S
JOLIET*        MOCLDY    73  58  57 SE5       30.07F
WAUKEGAN       FAIR      61  54  77 E5        30.09F
DUPAGE AIRPORT PTCLDY    73  53  49 E9        30.07F
KANKAKEE*      MOCLDY    72  53  51 SE5       30.08S
WHEELING       PTCLDY    68  54  60 E5        30.10F
MORRIS*        MOCLDY    73  55  53 E8        30.05S
ROMEOVILLE*    MOCLDY    71  55  56 E7        30.08S
NORTHERLY ISL    N/A     62  54  74 W1          N/A
$$

LMZ740>746-290300-
SOUTHERN LAKE MICHIGAN

STATION/POSITION SKY/WX   TEMP    WIND        PRES    VSBY  WAVE
                          AIR SEA DIR/SP/G                  HT/PER
                          (F)     (DEG/KT/KT) (MB)    (MI)  (FT/S)
SOUTHERN BUOY              46 38   90/  8/ 10 1020.0          0
HARRISON CRIB              60      80/ 17/ 19   N/A
BURNHAM HARBOR             62      60/  2/ 10   N/A
CALUMET HARBOR             62      70/  5/  9   N/A
BURNS HARBOR               61      70/  8/ 10 1020.0F
MICHIGAN CITY              74      70/  7/  7   N/A
MICHIGAN CITY 6N           59 55  110/  4/  6   N/A           1
ST. JOSEPH                 70 60  130/  6/  6   N/A           1
$$

ILZ025>027-034>036-040-047-049-050-058-095>099-290300-
WEST-CENTRAL ILLINOIS

CITY           SKY/WX    TMP DP  RH WIND       PRES   REMARKS
QUINCY         LGT RAIN  68  64  87 CALM      30.04F
GALESBURG*     CLOUDY    73  57  58 SE3       30.04S
MACOMB*        CLOUDY    71  65  81 W6        30.07S
JACKSONVILLE*  CLOUDY    72  69  90 CALM      30.04F
PITTSFIELD*    CLOUDY    69  67  91 CALM      30.05F
$$

ILZ028>032-037-038-041>044-048-051>054-059>061-290300-
CENTRAL ILLINOIS

CITY           SKY/WX    TMP DP  RH WIND       PRES   REMARKS
PONTIAC        MOCLDY    75  55  49 SE6       30.07S
BLOOMINGTON    CLOUDY    74  62  66 SW10      30.08S
DECATUR        PTCLDY    74  62  66 S5        30.07S
PEORIA         CLOUDY    75  62  64 S9        30.05S
LACON*         MOCLDY    73  56  54 S6        30.03F
LINCOLN*       MOCLDY    71  66  85 CALM      30.04R
SPRINGFIELD    CLOUDY    70  67  90 CALM      30.06F
TAYLORVILLE    CLOUDY    73  64  73 SE5       30.07S
$$

ILZ033-039-045-046-055>057-062-063-290300-
EAST-CENTRAL ILLINOIS

CITY           SKY/WX    TMP DP  RH WIND       PRES   REMARKS
CHAMPAIGN      MOCLDY    76  61  59 S7        30.08S
DANVILLE*      MOCLDY    78  60  55 S6        30.07S
RANTOUL*       CLOUDY    79  63  58 S6        30.08S HX  80
PARIS*         CLOUDY    78  64  62 S7        30.10S
$$

ILZ079-100>102-290300-
SOUTHWEST ILLINOIS

CITY           SKY/WX    TMP DP  RH WIND       PRES   REMARKS
BELLEVILLE     CLEAR     73  65  75 VRB2      30.05R
CAHOKIA*       PTCLDY    76  63  64 S9        30.04S
SPARTA*        CLEAR     73  66  80 CALM      30.07S
$$

ILZ064>066-069>071-074>076-080>082-084>086-088>090-092>094-290300-
SOUTH-CENTRAL ILLINOIS

CITY           SKY/WX    TMP DP  RH WIND       PRES   REMARKS
CARBONDALE     CLEAR     71  66  84 SE3       30.07R
CAIRO*         CLEAR     74  66  77 CALM      30.08R
EFFINGHAM*     MOCLDY    72  65  79 CALM      30.09S
MARION         CLEAR     73  66  78 CALM      30.09R
MT. VERNON     PTCLDY    70  63  78 CALM      30.09R
CENTRALIA*     PTCLDY    72  65  76 SE3       30.08S
SALEM*         PTCLDY    77  65  67 CALM      30.08S
METROPOLIS*    CLOUDY    77  67  69 SE3       30.08R
$$

ILZ067-068-072-073-078-083-087-091-290300-
SOUTHEAST ILLINOIS

CITY           SKY/WX    TMP DP  RH WIND       PRES   REMARKS
LAWRENCEVILLE  PTCLDY    73  66  78 SE8       30.10R
FLORA*         PTCLDY    74  65  74 S5        30.08S
FAIRFIELD*     PTCLDY    74  66  74 CALM      30.08R
HARRISBURG*    PTCLDY    75  66  74 S3        30.10R
ROBINSON*      PTCLDY    76  63  64 SE3       30.10R
CARMI*         PTCLDY    73  63  68 SE6       30.08R
$$

ABBREVIATIONS USED IN REMARKS
   TC - TEMPERATURE IN CELSIUS
  WCI - WIND CHILL INDEX
   HX - HEAT INDEX
  VSB - VISIBILITY
$$



USA.gov is the U.S. government's official web portal to all federal, state and local government web resources and services.